| time (UTC) | temp F | wind direction | speed knots | gust knots | rain 1hr in | rain 24hr in | rain mn in | humidity % | barometer mb |
| 20260503184124 | 60 | 181 | 3.5 | 9.6 | 0.00 | 0.02 | 0.01 | 36 | 1020.0 |
| 20260503184024 | 60 | 182 | 5.2 | 7.8 | 0.00 | 0.02 | 0.01 | 36 | 1020.0 |
| 20260503183024 | 59 | 238 | 7.8 | 11.3 | 0.00 | 0.02 | 0.01 | 36 | 1020.3 |
| 20260503181123 | 60 | 245 | 5.2 | 7.8 | 0.00 | 0.02 | 0.01 | 35 | 1020.4 |
| 20260503181022 | 60 | 259 | 6.1 | 10.4 | 0.00 | 0.02 | 0.01 | 35 | 1020.4 |
| 20260503180939 | 60 | 235 | 7.0 | 12.2 | 0.00 | 0.02 | 0.01 | 35 | 1020.4 |
| 20260503175923 | 60 | 249 | 6.1 | 12.2 | 0.00 | 0.02 | 0.01 | 36 | 1020.5 |
| 20260503174923 | 60 | 248 | 5.2 | 7.8 | 0.00 | 0.02 | 0.01 | 35 | 1020.7 |
| 20260503173121 | 60 | 219 | 5.2 | 11.3 | 0.00 | 0.02 | 0.01 | 37 | 1020.8 |
| 20260503172124 | 59 | 252 | 7.8 | 12.2 | 0.00 | 0.02 | 0.01 | 36 | 1021.0 |
| 20260503171221 | 59 | 254 | 4.3 | 9.6 | 0.00 | 0.02 | 0.01 | 37 | 1021.2 |
| 20260503170238 | 59 | 267 | 4.3 | 10.4 | 0.00 | 0.02 | 0.01 | 38 | 1021.3 |
| 20260503150224 | 53 | 253 | 4.3 | 7.0 | 0.00 | 0.02 | 0.01 | 53 | 1022.7 |
| 20260503131325 | 45 | 180 | 2.6 | 3.5 | 0.00 | 0.03 | 0.01 | 73 | 1023.3 |
| 20260503130324 | 44 | 180 | 6.1 | 8.7 | 0.00 | 0.03 | 0.01 | 77 | 1023.0 |
| 20260503110621 | 34 | 247 | 0.9 | 0.9 | 0.00 | 0.03 | 0.01 | 99 | 1022.4 |
| 20260503072923 | 33 | 292 | 0.0 | 0.0 | 0.00 | 0.02 | 0.00 | 95 | 1021.8 |
| 20260503071925 | 33 | 292 | 0.0 | 0.0 | 0.00 | 0.02 | 0.00 | 95 | 1021.7 |
| 20260503071841 | 33 | 292 | 0.0 | 0.0 | 0.00 | 0.02 | 0.00 | 96 | 1021.8 |
| 20260503070921 | 34 | 292 | 0.0 | 0.0 | 0.00 | 0.02 | 0.00 | 95 | 1021.9 |
| 20260503054622 | 34 | 360 | 0.0 | 0.0 | 0.00 | 0.02 | 0.00 | 94 | 1022.2 |
| 20260503053722 | 35 | 360 | 0.0 | 0.0 | 0.00 | 0.02 | 0.00 | 93 | 1022.2 |
| 20260503053624 | 35 | 360 | 0.0 | 0.0 | 0.00 | 0.02 | 0.00 | 93 | 1022.2 |
| 20260503052622 | 34 | 360 | 0.0 | 0.0 | 0.00 | 0.02 | 0.00 | 93 | 1022.2 |
| 20260503052521 | 34 | 360 | 0.0 | 0.0 | 0.00 | 0.02 | 0.00 | 93 | 1022.2 |
| 20260503045622 | 35 | 360 | 0.0 | 0.0 | 0.00 | 0.02 | 0.00 | 92 | 1022.1 |
| 20260503045539 | 35 | 360 | 0.0 | 0.0 | 0.00 | 0.02 | 0.00 | 92 | 1022.1 |
| 20260503042721 | 37 | 360 | 0.0 | 0.0 | 0.00 | 0.02 | 0.00 | 92 | 1022.2 |
| 20260503041821 | 37 | 360 | 0.0 | 0.0 | 0.00 | 0.02 | 0.00 | 91 | 1022.3 |
| 20260503040823 | 36 | 360 | 0.0 | 0.0 | 0.00 | 0.02 | 0.00 | 89 | 1022.1 |
| 20260503035847 | 36 | 360 | 0.0 | 0.0 | 0.00 | 0.02 | 0.02 | 90 | 1022.1 |
| 20260503034831 | 36 | 360 | 0.0 | 0.0 | 0.00 | 0.02 | 0.02 | 88 | 1022.2 |
| 20260503033829 | 36 | 360 | 0.0 | 0.0 | 0.00 | 0.02 | 0.02 | 87 | 1022.2 |
| 20260503032830 | 37 | 360 | 0.0 | 0.0 | 0.00 | 0.02 | 0.02 | 87 | 1022.2 |
| 20260503032730 | 37 | 360 | 0.0 | 0.0 | 0.00 | 0.02 | 0.02 | 87 | 1022.2 |
| 20260503031731 | 37 | 360 | 0.0 | 0.0 | 0.00 | 0.02 | 0.02 | 85 | 1022.3 |
| 20260503030729 | 37 | 360 | 0.0 | 0.0 | 0.00 | 0.02 | 0.02 | 85 | 1022.3 |
| 20260503025730 | 37 | 360 | 0.0 | 0.0 | 0.00 | 0.02 | 0.02 | 84 | 1022.2 |
| 20260503025631 | 37 | 360 | 0.0 | 0.0 | 0.00 | 0.02 | 0.02 | 84 | 1022.2 |
| 20260503024529 | 37 | 360 | 0.0 | 0.0 | 0.00 | 0.03 | 0.02 | 81 | 1022.3 |
| 20260503023531 | 38 | 360 | 0.0 | 0.0 | 0.00 | 0.03 | 0.02 | 80 | 1022.3 |
| 20260503023429 | 38 | 360 | 0.0 | 0.0 | 0.00 | 0.03 | 0.02 | 79 | 1022.2 |
| 20260503023329 | 38 | 360 | 0.0 | 0.0 | 0.00 | 0.03 | 0.02 | 78 | 1022.3 |
| 20260503022331 | 38 | 360 | 0.0 | 0.0 | 0.00 | 0.03 | 0.02 | 75 | 1022.3 |
| 20260503021430 | 39 | 360 | 0.0 | 0.0 | 0.00 | 0.03 | 0.02 | 72 | 1022.2 |
| 20260503021331 | 39 | 360 | 0.0 | 0.0 | 0.00 | 0.03 | 0.02 | 72 | 1022.3 |
| 20260503020429 | 40 | 360 | 0.0 | 0.0 | 0.00 | 0.03 | 0.02 | 69 | 1022.1 |
| 20260503015429 | 40 | 360 | 0.0 | 0.0 | 0.00 | 0.03 | 0.02 | 65 | 1022.0 |
| 20260503015330 | 40 | 360 | 0.0 | 0.0 | 0.00 | 0.03 | 0.02 | 65 | 1022.0 |
| 20260503013430 | 42 | 360 | 0.0 | 0.0 | 0.00 | 0.03 | 0.02 | 59 | 1021.7 |
| 20260503012529 | 43 | 360 | 0.0 | 0.0 | 0.00 | 0.03 | 0.02 | 58 | 1021.7 |
| 20260503012446 | 43 | 360 | 0.0 | 0.0 | 0.00 | 0.03 | 0.02 | 57 | 1021.7 |
| 20260503011431 | 44 | 360 | 0.0 | 0.0 | 0.00 | 0.03 | 0.02 | 56 | 1021.6 |
| 20260503010529 | 45 | 360 | 0.0 | 0.0 | 0.00 | 0.03 | 0.02 | 55 | 1021.5 |
| 20260503005530 | 46 | 360 | 0.0 | 1.7 | 0.00 | 0.03 | 0.02 | 53 | 1021.6 |
| 20260503004529 | 46 | 22 | 0.9 | 1.7 | 0.00 | 0.03 | 0.02 | 53 | 1021.4 |
| 20260503003546 | 47 | 22 | 0.0 | 0.0 | 0.00 | 0.03 | 0.02 | 50 | 1021.5 |
| 20260503001631 | 48 | 53 | 0.9 | 3.5 | 0.00 | 0.03 | 0.02 | 49 | 1021.3 |
| 20260503000647 | 49 | 348 | 0.9 | 5.2 | 0.00 | 0.03 | 0.02 | 47 | 1021.2 |
| 20260502235733 | 49 | 9 | 0.0 | 2.6 | 0.00 | 0.03 | 0.02 | 48 | 1021.1 |
| 20260502234732 | 50 | 20 | 3.5 | 5.2 | 0.00 | 0.03 | 0.02 | 47 | 1020.9 |
| 20260502234645 | 50 | 260 | 1.7 | 4.3 | 0.00 | 0.03 | 0.02 | 47 | 1021.0 |
| 20260502233730 | 50 | 22 | 0.0 | 0.0 | 0.00 | 0.03 | 0.02 | 46 | 1021.0 |
| 20260502232729 | 51 | 19 | 1.7 | 5.2 | 0.00 | 0.03 | 0.02 | 44 | 1020.8 |
| 20260502231732 | 51 | 331 | 3.5 | 7.0 | 0.00 | 0.03 | 0.02 | 44 | 1020.8 |
| 20260502230746 | 51 | 351 | 1.7 | 3.5 | 0.00 | 0.03 | 0.02 | 42 | 1020.8 |
| 20260502224830 | 52 | 338 | 0.0 | 0.9 | 0.00 | 0.03 | 0.02 | 42 | 1020.7 |
| 20260502224730 | 52 | 3 | 0.0 | 0.9 | 0.00 | 0.03 | 0.02 | 42 | 1020.7 |
| 20260502223730 | 52 | 347 | 2.6 | 6.1 | 0.00 | 0.03 | 0.02 | 40 | 1020.6 |
| 20260502221733 | 54 | 191 | 0.9 | 1.7 | 0.00 | 0.03 | 0.02 | 39 | 1020.4 |
| 20260502221632 | 54 | 292 | 0.0 | 0.9 | 0.00 | 0.03 | 0.02 | 38 | 1020.5 |
| 20260502220644 | 54 | 319 | 1.7 | 3.5 | 0.00 | 0.03 | 0.02 | 39 | 1020.4 |
| 20260502215729 | 54 | 157 | 1.7 | 4.3 | 0.00 | 0.03 | 0.02 | 39 | 1020.3 |
| 20260502214730 | 54 | 14 | 1.7 | 4.3 | 0.01 | 0.03 | 0.02 | 39 | 1020.4 |
| 20260502212730 | 54 | 171 | 1.7 | 2.6 | 0.01 | 0.03 | 0.02 | 40 | 1020.2 |
| 20260502212632 | 53 | 334 | 0.9 | 3.5 | 0.01 | 0.03 | 0.02 | 40 | 1020.3 |
| 20260502211631 | 54 | 27 | 4.3 | 6.1 | 0.01 | 0.03 | 0.02 | 39 | 1020.2 |
| 20260502210631 | 54 | 158 | 1.7 | 6.1 | 0.01 | 0.03 | 0.02 | 40 | 1020.2 |
| 20260502204630 | 53 | 298 | 0.9 | 2.6 | 0.00 | 0.02 | 0.01 | 40 | 1020.2 |
| 20260502203629 | 54 | 22 | 0.9 | 4.3 | 0.00 | 0.02 | 0.01 | 38 | 1020.3 |
| 20260502203531 | 54 | 19 | 3.5 | 6.1 | 0.00 | 0.02 | 0.01 | 38 | 1020.3 |
| 20260502200529 | 55 | 345 | 0.9 | 3.5 | 0.00 | 0.02 | 0.01 | 37 | 1020.4 |
| 20260502195530 | 57 | 330 | 0.0 | 1.7 | 0.00 | 0.02 | 0.01 | 37 | 1020.4 |
| 20260502194532 | 57 | 129 | 3.5 | 5.2 | 0.00 | 0.02 | 0.01 | 38 | 1020.4 |
| 20260502194432 | 57 | 299 | 0.9 | 2.6 | 0.00 | 0.02 | 0.01 | 38 | 1020.4 |
| 20260502193430 | 55 | 277 | 1.7 | 2.6 | 0.00 | 0.02 | 0.01 | 39 | 1020.6 |
| 20260502192430 | 55 | 331 | 0.0 | 2.6 | 0.00 | 0.02 | 0.01 | 39 | 1020.7 |
| 20260502191444 | 56 | 71 | 1.7 | 8.7 | 0.00 | 0.02 | 0.01 | 39 | 1020.6 |
| 20260502190345 | 56 | 19 | 0.9 | 1.7 | 0.00 | 0.02 | 0.01 | 39 | 1020.7 |
| 20260502185247 | 55 | 112 | 0.0 | 0.0 | 0.00 | 0.03 | 0.01 | 42 | 1020.8 |